Tracking 28915 objects as of 30-May-2024
HD Live streaming from Space Station
objects crossing your sky now

ANSER-FLW2

Track ANSER-FLW2 now!
10-day predictions
ANSER-FLW2 is classified as:


NORAD ID: 58018
Int'l Code: 2023-155C
Perigee: 566.0 km
Apogee: 568.7 km
Inclination: 97.6 °
Period: 95.9 minutes
Semi major axis: 6938 km
RCS: Unknown
Launch date: October 9, 2023
Source: Spain (SPN)
Launch site: FRENCH GUIANA (FRGUI)

Uplink (MHz):
Downlink (MHz): 401.850
Beacon (MHz):
Mode: FM
Call sign:
Status: Unknown

Your satellite tracking list
Your tracking list is empty




NASA's NSSDC Master Catalog

Two Line Element Set (TLE):
1 58018U 23155C   24150.70304572  .00003135  00000-0  24264-3 0  9991
2 58018  97.6299 220.6499 0001938 178.5694 181.5537 15.02182870 35012
Source of the keplerian elements: AFSPC